Location: Unspecified
(53.6186°N, 1.3184°W)
Time: 08:25:58
(UTC+01:00)

ISS - Pass Details

Date: 16 September 2017
Orbit: 401 x 407 km, 51.6° (Epoch: 23 September)

Event Time Altitude Azimuth Distance (km) Brightness Sun altitude
Exits shadow 03:29:24 14° 97° (E) 1,242 -1.0 -25.8°
Drops below altitude 10° 03:29:59 10° 96° (E) 1,473 -0.6 -25.7°
Sets 03:32:05 0° 93° (E) 2,334 0.6 -25.5°
